Location: Holbach
(51.5399°N, 10.6036°E)
Time: 16:04:06
(UTC+00:00)

NOSS 2-2 (C) - Pass Details

Date: 18 September 2020
Orbit: 468 x 1740 km, 63.3° (Epoch: 19 October)

Event Time Altitude Azimuth Distance (km) Brightness Sun altitude
Rises 18:16:08 0° 191° (S) 2,501 6.7 -8.8°
Reaches altitude 10° 18:18:25 10° 177° (S) 1,627 5.6 -9.1°
Maximum altitude 18:21:20 25° 120° (ESE) 1,022 4.1 -9.6°
Drops below altitude 10° 18:24:33 10° 63° (ENE) 1,791 5.5 -10.1°
Sets 18:27:11 0° 51° (NE) 2,824 6.6 -10.5°
